Location: Bartshausen
(51.8454°N, 9.8167°E)
Time: 09:44:44
(UTC+00:00)

ADEOS Rocket - Pass Details

Date: 08 November 2025
Orbit: 859 x 1304 km, 98.7° (Epoch: 11 December)

Event Time Altitude Azimuth Distance (km) Brightness Sun altitude
Rises 02:30:02 0° 17° (NNE) 3,739 6.5 -36.5°
Reaches altitude 10° 02:32:27 10° 20° (NNE) 2,842 5.8 -36.1°
Enters shadow 02:38:46 64° 96° (E) 1,223 3.5 -35.2°
